<?xml version='1.0' encoding='UTF-8'?>
<gpx xmlns="http://www.topografix.com/GPX/1/1" creator="www.balnam.be" version="1.1" xmlns:xsi="http://www.w3.org/2001/XMLSchema-instance" xsi:schemaLocation="http://www.topografix.com/GPX/1/1 http://www.topografix.com/GPX/1/1/gpx.xsd">
<trk>
<name>lwzat10</name>
<cmt>v</cmt>
<desc>Antheit Chemin n°10 </desc>
<link href="https://chemins.be/antheit/chemin/10"/><trkseg>
<trkpt lat="50.545985" lon="5.221999"><time>2026-05-02T17:43:16Z</time></trkpt>
<trkpt lat="50.545783" lon="5.221360"><time>2026-05-02T17:53:16Z</time></trkpt>
<trkpt lat="50.544786" lon="5.218822"><time>2026-05-02T18:03:16Z</time></trkpt>
</trkseg>
</trk>
<trk>
<name>lwzat13</name>
<cmt>r</cmt>
<desc>Antheit Chemin n°13 Thier de Messe</desc>
<link href="https://chemins.be/antheit/chemin/13"/><trkseg>
<trkpt lat="50.550158" lon="5.235268"><time>2026-05-02T17:43:16Z</time></trkpt>
<trkpt lat="50.551080" lon="5.235807"><time>2026-05-02T17:53:16Z</time></trkpt>
<trkpt lat="50.551211" lon="5.236290"><time>2026-05-02T18:03:16Z</time></trkpt>
<trkpt lat="50.551490" lon="5.236182"><time>2026-05-02T18:13:16Z</time></trkpt>
</trkseg>
</trk>
<trk>
<name>lwzat16</name>
<cmt>r</cmt>
<desc>Antheit Chemin n°16 Sur le Plain</desc>
<link href="https://chemins.be/antheit/chemin/16"/><trkseg>
<trkpt lat="50.548695" lon="5.249296"><time>2026-05-02T17:43:16Z</time></trkpt>
<trkpt lat="50.549304" lon="5.250775"><time>2026-05-02T17:53:16Z</time></trkpt>
</trkseg></trk>
<trk>
<name>lwzat16</name>
<cmt>v</cmt>
<desc>Antheit Chemin n°16 Sur le Plain</desc>
<link href="https://chemins.be/antheit/chemin/16"/><trkseg>
<trkpt lat="50.549304" lon="5.250775"><time>2026-05-02T17:53:16Z</time></trkpt>
<trkpt lat="50.549841" lon="5.252323"><time>2026-05-02T18:03:16Z</time></trkpt>
<trkpt lat="50.550264" lon="5.253460"><time>2026-05-02T18:13:16Z</time></trkpt>
</trkseg></trk>
<trk>
<name>lwzat16</name>
<cmt>q</cmt>
<desc>Antheit Chemin n°16 Sur le Plain</desc>
<link href="https://chemins.be/antheit/chemin/16"/><trkseg>
<trkpt lat="50.550264" lon="5.253460"><time>2026-05-02T18:13:16Z</time></trkpt>
<trkpt lat="50.550581" lon="5.254228"><time>2026-05-02T18:23:16Z</time></trkpt>
<trkpt lat="50.552175" lon="5.256248"><time>2026-05-02T18:33:16Z</time></trkpt>
<trkpt lat="50.554022" lon="5.259302"><time>2026-05-02T18:43:16Z</time></trkpt>
</trkseg>
</trk>
<trk>
<name>lwzat18</name>
<cmt>v</cmt>
<desc>Antheit Chemin n°18 </desc>
<link href="https://chemins.be/antheit/chemin/18"/><trkseg>
<trkpt lat="50.547582" lon="5.253777"><time>2026-05-02T17:43:16Z</time></trkpt>
<trkpt lat="50.547872" lon="5.254699"><time>2026-05-02T17:53:16Z</time></trkpt>
<trkpt lat="50.551641" lon="5.260273"><time>2026-05-02T18:03:16Z</time></trkpt>
</trkseg>
</trk>
<trk>
<name>lwzat2</name>
<cmt>v</cmt>
<desc>Antheit Chemin n°2 </desc>
<link href="https://chemins.be/antheit/chemin/2"/><trkseg>
<trkpt lat="50.540629" lon="5.232695"><time>2026-05-02T17:43:16Z</time></trkpt>
<trkpt lat="50.541205" lon="5.232522"><time>2026-05-02T17:53:16Z</time></trkpt>
</trkseg></trk>
<trk>
<name>lwzat2</name>
<cmt>d</cmt>
<desc>Antheit Chemin n°2 </desc>
<link href="https://chemins.be/antheit/chemin/2"/><trkseg>
<trkpt lat="50.541205" lon="5.232522"><time>2026-05-02T17:53:16Z</time></trkpt>
<trkpt lat="50.542789" lon="5.232396"><time>2026-05-02T18:03:16Z</time></trkpt>
<trkpt lat="50.544460" lon="5.232511"><time>2026-05-02T18:13:16Z</time></trkpt>
</trkseg></trk>
<trk>
<name>lwzat2</name>
<cmt>q</cmt>
<desc>Antheit Chemin n°2 </desc>
<link href="https://chemins.be/antheit/chemin/2"/><trkseg>
<trkpt lat="50.544460" lon="5.232511"><time>2026-05-02T18:13:16Z</time></trkpt>
<trkpt lat="50.545921" lon="5.233117"><time>2026-05-02T18:23:16Z</time></trkpt>
</trkseg>
</trk>
<trk>
<name>lwzat20</name>
<cmt>v</cmt>
<desc>Antheit Chemin n°20 Rue Odile Nokin</desc>
<link href="https://chemins.be/antheit/chemin/20"/><trkseg>
<trkpt lat="50.540187" lon="5.231686"><time>2026-05-02T17:43:16Z</time></trkpt>
<trkpt lat="50.539674" lon="5.231690"><time>2026-05-02T17:53:16Z</time></trkpt>
<trkpt lat="50.538672" lon="5.231037"><time>2026-05-02T18:03:16Z</time></trkpt>
</trkseg></trk>
<trk>
<name>lwzat20</name>
<cmt>r</cmt>
<desc>Antheit Chemin n°20 Rue Odile Nokin</desc>
<link href="https://chemins.be/antheit/chemin/20"/><trkseg>
<trkpt lat="50.538672" lon="5.231037"><time>2026-05-02T18:03:16Z</time></trkpt>
<trkpt lat="50.538341" lon="5.230763"><time>2026-05-02T18:13:16Z</time></trkpt>
<trkpt lat="50.537276" lon="5.230179"><time>2026-05-02T18:23:16Z</time></trkpt>
</trkseg>
</trk>
<trk>
<name>lwzat21</name>
<cmt>v</cmt>
<desc>Antheit Chemin n°21 </desc>
<link href="https://chemins.be/antheit/chemin/21"/><trkseg>
<trkpt lat="50.541233" lon="5.239606"><time>2026-05-02T17:43:16Z</time></trkpt>
<trkpt lat="50.542896" lon="5.242133"><time>2026-05-02T17:53:16Z</time></trkpt>
<trkpt lat="50.544032" lon="5.244102"><time>2026-05-02T18:03:16Z</time></trkpt>
<trkpt lat="50.544764" lon="5.244835"><time>2026-05-02T18:13:16Z</time></trkpt>
</trkseg>
</trk>
<trk>
<name>lwzat23</name>
<cmt>v</cmt>
<desc>Antheit Chemin n°23 </desc>
<link href="https://chemins.be/antheit/chemin/23"/><trkseg>
<trkpt lat="50.541334" lon="5.233371"><time>2026-05-02T17:43:16Z</time></trkpt>
<trkpt lat="50.540682" lon="5.235236"><time>2026-05-02T17:53:16Z</time></trkpt>
</trkseg></trk>
<trk>
<name>lwzat23</name>
<cmt>q</cmt>
<desc>Antheit Chemin n°23 </desc>
<link href="https://chemins.be/antheit/chemin/23"/><trkseg>
<trkpt lat="50.540682" lon="5.235236"><time>2026-05-02T17:53:16Z</time></trkpt>
<trkpt lat="50.540052" lon="5.236438"><time>2026-05-02T18:03:16Z</time></trkpt>
<trkpt lat="50.540275" lon="5.236766"><time>2026-05-02T18:13:16Z</time></trkpt>
<trkpt lat="50.539117" lon="5.238903"><time>2026-05-02T18:23:16Z</time></trkpt>
<trkpt lat="50.539961" lon="5.240245"><time>2026-05-02T18:33:16Z</time></trkpt>
</trkseg>
</trk>
<trk>
<name>lwzat25</name>
<cmt>v</cmt>
<desc>Antheit Chemin n°25 Rue Lucien Dupagne</desc>
<link href="https://chemins.be/antheit/chemin/25"/><trkseg>
<trkpt lat="50.544403" lon="5.228122"><time>2026-05-02T17:43:16Z</time></trkpt>
<trkpt lat="50.544047" lon="5.228751"><time>2026-05-02T17:53:16Z</time></trkpt>
<trkpt lat="50.543567" lon="5.229236"><time>2026-05-02T18:03:16Z</time></trkpt>
</trkseg>
</trk>
<trk>
<name>lwzat28</name>
<cmt>r</cmt>
<desc>Antheit Chemin n°28 Rue Léopold Malaise / Rue J. Cheu</desc>
<link href="https://chemins.be/antheit/chemin/28"/><trkseg>
<trkpt lat="50.555049" lon="5.244771"><time>2026-05-02T17:43:16Z</time></trkpt>
<trkpt lat="50.554357" lon="5.245972"><time>2026-05-02T17:53:16Z</time></trkpt>
</trkseg></trk>
<trk>
<name>lwzat28</name>
<cmt>v</cmt>
<desc>Antheit Chemin n°28 Rue Léopold Malaise / Rue J. Cheu</desc>
<link href="https://chemins.be/antheit/chemin/28"/><trkseg>
<trkpt lat="50.554357" lon="5.245972"><time>2026-05-02T17:53:16Z</time></trkpt>
<trkpt lat="50.554193" lon="5.246294"><time>2026-05-02T18:03:16Z</time></trkpt>
</trkseg></trk>
<trk>
<name>lwzat28</name>
<cmt>b</cmt>
<desc>Antheit Chemin n°28 Rue Léopold Malaise / Rue J. Cheu</desc>
<link href="https://chemins.be/antheit/chemin/28"/><trkseg>
<trkpt lat="50.554193" lon="5.246294"><time>2026-05-02T18:03:16Z</time></trkpt>
<trkpt lat="50.554383" lon="5.247356"><time>2026-05-02T18:13:16Z</time></trkpt>
</trkseg>
</trk>
<trk>
<name>lwzat29</name>
<cmt>r</cmt>
<desc>Antheit Chemin n°29 Rue Léopold Malaise</desc>
<link href="https://chemins.be/antheit/chemin/29"/><trkseg>
<trkpt lat="50.555085" lon="5.244772"><time>2026-05-02T17:43:16Z</time></trkpt>
<trkpt lat="50.555146" lon="5.245084"><time>2026-05-02T17:53:16Z</time></trkpt>
<trkpt lat="50.555359" lon="5.245384"><time>2026-05-02T18:03:16Z</time></trkpt>
</trkseg>
</trk>
<trk>
<name>lwzat31</name>
<cmt>v</cmt>
<desc>Antheit Chemin n°31 </desc>
<link href="https://chemins.be/antheit/chemin/31"/><trkseg>
<trkpt lat="50.554347" lon="5.242259"><time>2026-05-02T17:43:16Z</time></trkpt>
<trkpt lat="50.554542" lon="5.242624"><time>2026-05-02T17:53:16Z</time></trkpt>
</trkseg>
</trk>
<trk>
<name>lwzat33</name>
<cmt>q</cmt>
<desc>Antheit Chemin n°33 </desc>
<link href="https://chemins.be/antheit/chemin/33"/><trkseg>
<trkpt lat="50.554812" lon="5.245261"><time>2026-05-02T17:43:16Z</time></trkpt>
<trkpt lat="50.554944" lon="5.245644"><time>2026-05-02T17:53:16Z</time></trkpt>
</trkseg>
</trk>
<trk>
<name>lwzat34</name>
<cmt>v</cmt>
<desc>Antheit Chemin n°34 </desc>
<link href="https://chemins.be/antheit/chemin/34"/><trkseg>
<trkpt lat="50.551080" lon="5.246979"><time>2026-05-02T17:43:16Z</time></trkpt>
<trkpt lat="50.551244" lon="5.247579"><time>2026-05-02T17:53:16Z</time></trkpt>
</trkseg></trk>
<trk>
<name>lwzat34</name>
<cmt>q</cmt>
<desc>Antheit Chemin n°34 </desc>
<link href="https://chemins.be/antheit/chemin/34"/><trkseg>
<trkpt lat="50.551244" lon="5.247579"><time>2026-05-02T17:53:16Z</time></trkpt>
<trkpt lat="50.551514" lon="5.248431"><time>2026-05-02T18:03:16Z</time></trkpt>
</trkseg>
</trk>
<trk>
<name>lwzat35</name>
<cmt>v</cmt>
<desc>Antheit Chemin n°35 </desc>
<link href="https://chemins.be/antheit/chemin/35"/><trkseg>
<trkpt lat="50.552732" lon="5.232479"><time>2026-05-02T17:43:16Z</time></trkpt>
<trkpt lat="50.552552" lon="5.232433"><time>2026-05-02T17:53:16Z</time></trkpt>
<trkpt lat="50.552499" lon="5.232348"><time>2026-05-02T18:03:16Z</time></trkpt>
<trkpt lat="50.552501" lon="5.232080"><time>2026-05-02T18:13:16Z</time></trkpt>
<trkpt lat="50.553112" lon="5.230948"><time>2026-05-02T18:23:16Z</time></trkpt>
</trkseg></trk>
<trk>
<name>lwzat35</name>
<cmt>r</cmt>
<desc>Antheit Chemin n°35 </desc>
<link href="https://chemins.be/antheit/chemin/35"/><trkseg>
<trkpt lat="50.553112" lon="5.230948"><time>2026-05-02T18:23:16Z</time></trkpt>
<trkpt lat="50.553814" lon="5.229549"><time>2026-05-02T18:33:16Z</time></trkpt>
</trkseg>
</trk>
<trk>
<name>lwzat36</name>
<cmt>r</cmt>
<desc>Antheit Chemin n°36 </desc>
<link href="https://chemins.be/antheit/chemin/36"/><trkseg>
<trkpt lat="50.547963" lon="5.236555"><time>2026-05-02T17:43:16Z</time></trkpt>
<trkpt lat="50.548015" lon="5.236866"><time>2026-05-02T17:53:16Z</time></trkpt>
<trkpt lat="50.548356" lon="5.236900"><time>2026-05-02T18:03:16Z</time></trkpt>
<trkpt lat="50.548499" lon="5.237058"><time>2026-05-02T18:13:16Z</time></trkpt>
<trkpt lat="50.548786" lon="5.237092"><time>2026-05-02T18:23:16Z</time></trkpt>
<trkpt lat="50.549815" lon="5.237788"><time>2026-05-02T18:33:16Z</time></trkpt>
</trkseg>
</trk>
<trk>
<name>lwzat37</name>
<cmt>r</cmt>
<desc>Antheit Chemin n°37 </desc>
<link href="https://chemins.be/antheit/chemin/37"/><trkseg>
<trkpt lat="50.551798" lon="5.237175"><time>2026-05-02T17:43:16Z</time></trkpt>
<trkpt lat="50.553026" lon="5.236408"><time>2026-05-02T17:53:16Z</time></trkpt>
<trkpt lat="50.553494" lon="5.236402"><time>2026-05-02T18:03:16Z</time></trkpt>
</trkseg></trk>
<trk>
<name>lwzat37</name>
<cmt>v</cmt>
<desc>Antheit Chemin n°37 </desc>
<link href="https://chemins.be/antheit/chemin/37"/><trkseg>
<trkpt lat="50.553494" lon="5.236402"><time>2026-05-02T18:03:16Z</time></trkpt>
<trkpt lat="50.554707" lon="5.236467"><time>2026-05-02T18:13:16Z</time></trkpt>
<trkpt lat="50.554884" lon="5.235581"><time>2026-05-02T18:23:16Z</time></trkpt>
</trkseg>
</trk>
<trk>
<name>lwzat39</name>
<cmt>v</cmt>
<desc>Antheit Chemin n°39 </desc>
<link href="https://chemins.be/antheit/chemin/39"/><trkseg>
<trkpt lat="50.541563" lon="5.224191"><time>2026-05-02T17:43:16Z</time></trkpt>
<trkpt lat="50.540913" lon="5.224588"><time>2026-05-02T17:53:16Z</time></trkpt>
<trkpt lat="50.540125" lon="5.225463"><time>2026-05-02T18:03:16Z</time></trkpt>
</trkseg>
</trk>
<trk>
<name>lwzat4</name>
<cmt>s</cmt>
<desc>Antheit Chemin n°4 Rue Vielle Hesbaye</desc>
<link href="https://chemins.be/antheit/chemin/4"/><trkseg>
<trkpt lat="50.549621" lon="5.217733"><time>2026-05-02T17:43:16Z</time></trkpt>
<trkpt lat="50.549084" lon="5.217483"><time>2026-05-02T17:53:16Z</time></trkpt>
<trkpt lat="50.547149" lon="5.216559"><time>2026-05-02T18:03:16Z</time></trkpt>
<trkpt lat="50.546339" lon="5.216658"><time>2026-05-02T18:13:16Z</time></trkpt>
<trkpt lat="50.545678" lon="5.217154"><time>2026-05-02T18:23:16Z</time></trkpt>
<trkpt lat="50.544781" lon="5.218792"><time>2026-05-02T18:33:16Z</time></trkpt>
</trkseg></trk>
<trk>
<name>lwzat4</name>
<cmt>q</cmt>
<desc>Antheit Chemin n°4 Rue Vielle Hesbaye</desc>
<link href="https://chemins.be/antheit/chemin/4"/><trkseg>
<trkpt lat="50.544781" lon="5.218792"><time>2026-05-02T18:33:16Z</time></trkpt>
<trkpt lat="50.544194" lon="5.218201"><time>2026-05-02T18:43:16Z</time></trkpt>
<trkpt lat="50.543523" lon="5.218802"><time>2026-05-02T18:53:16Z</time></trkpt>
</trkseg></trk>
<trk>
<name>lwzat4</name>
<cmt>r</cmt>
<desc>Antheit Chemin n°4 Rue Vielle Hesbaye</desc>
<link href="https://chemins.be/antheit/chemin/4"/><trkseg>
<trkpt lat="50.543523" lon="5.218802"><time>2026-05-02T18:53:16Z</time></trkpt>
<trkpt lat="50.543425" lon="5.218639"><time>2026-05-02T19:03:16Z</time></trkpt>
<trkpt lat="50.542929" lon="5.218544"><time>2026-05-02T19:13:16Z</time></trkpt>
</trkseg>
</trk>
<trk>
<name>lwzat42</name>
<cmt>v</cmt>
<desc>Antheit Chemin n°42 </desc>
<link href="https://chemins.be/antheit/chemin/42"/><trkseg>
<trkpt lat="50.539907" lon="5.229423"><time>2026-05-02T17:43:16Z</time></trkpt>
<trkpt lat="50.539499" lon="5.229853"><time>2026-05-02T17:53:16Z</time></trkpt>
<trkpt lat="50.539046" lon="5.230268"><time>2026-05-02T18:03:16Z</time></trkpt>
</trkseg></trk>
<trk>
<name>lwzat42</name>
<cmt>q</cmt>
<desc>Antheit Chemin n°42 </desc>
<link href="https://chemins.be/antheit/chemin/42"/><trkseg>
<trkpt lat="50.539046" lon="5.230268"><time>2026-05-02T18:03:16Z</time></trkpt>
<trkpt lat="50.538684" lon="5.230600"><time>2026-05-02T18:13:16Z</time></trkpt>
<trkpt lat="50.538306" lon="5.230706"><time>2026-05-02T18:23:16Z</time></trkpt>
</trkseg>
</trk>
<trk>
<name>lwzat43</name>
<cmt>r</cmt>
<desc>Antheit Chemin n°43 Rue Males Vignes</desc>
<link href="https://chemins.be/antheit/chemin/43"/><trkseg>
<trkpt lat="50.539939" lon="5.222624"><time>2026-05-02T17:43:16Z</time></trkpt>
<trkpt lat="50.539698" lon="5.223508"><time>2026-05-02T17:53:16Z</time></trkpt>
</trkseg>
</trk>
<trk>
<name>lwzat49</name>
<cmt>v</cmt>
<desc>Antheit Sentier n°49 Ruelle Saint Martin / Rue Ernest Malvoz / Rue des Chasseurs Ardennais / Thier Boutique / Chaussée de Waremme / Thier de Corphalie</desc>
<link href="https://chemins.be/antheit/sentier/49"/><trkseg>
<trkpt lat="50.551665" lon="5.236834"><time>2026-05-02T17:43:16Z</time></trkpt>
<trkpt lat="50.550137" lon="5.238034"><time>2026-05-02T17:53:16Z</time></trkpt>
<trkpt lat="50.550101" lon="5.238005"><time>2026-05-02T18:03:16Z</time></trkpt>
<trkpt lat="50.549957" lon="5.238115"><time>2026-05-02T18:13:16Z</time></trkpt>
<trkpt lat="50.550116" lon="5.238499"><time>2026-05-02T18:23:16Z</time></trkpt>
</trkseg></trk>
<trk>
<name>lwzat49</name>
<cmt>q</cmt>
<desc>Antheit Sentier n°49 Ruelle Saint Martin / Rue Ernest Malvoz / Rue des Chasseurs Ardennais / Thier Boutique / Chaussée de Waremme / Thier de Corphalie</desc>
<link href="https://chemins.be/antheit/sentier/49"/><trkseg>
<trkpt lat="50.550116" lon="5.238499"><time>2026-05-02T18:23:16Z</time></trkpt>
<trkpt lat="50.549719" lon="5.239776"><time>2026-05-02T18:33:16Z</time></trkpt>
</trkseg></trk>
<trk>
<name>lwzat49</name>
<cmt>r</cmt>
<desc>Antheit Sentier n°49 Ruelle Saint Martin / Rue Ernest Malvoz / Rue des Chasseurs Ardennais / Thier Boutique / Chaussée de Waremme / Thier de Corphalie</desc>
<link href="https://chemins.be/antheit/sentier/49"/><trkseg>
<trkpt lat="50.549719" lon="5.239776"><time>2026-05-02T18:33:16Z</time></trkpt>
<trkpt lat="50.548941" lon="5.240425"><time>2026-05-02T18:43:16Z</time></trkpt>
<trkpt lat="50.547955" lon="5.241253"><time>2026-05-02T18:53:16Z</time></trkpt>
<trkpt lat="50.546186" lon="5.242166"><time>2026-05-02T19:03:16Z</time></trkpt>
<trkpt lat="50.545084" lon="5.244107"><time>2026-05-02T19:13:16Z</time></trkpt>
<trkpt lat="50.544836" lon="5.244765"><time>2026-05-02T19:23:16Z</time></trkpt>
<trkpt lat="50.543122" lon="5.246681"><time>2026-05-02T19:33:16Z</time></trkpt>
<trkpt lat="50.541141" lon="5.248365"><time>2026-05-02T19:43:16Z</time></trkpt>
<trkpt lat="50.540325" lon="5.249225"><time>2026-05-02T19:53:16Z</time></trkpt>
<trkpt lat="50.539919" lon="5.249401"><time>2026-05-02T20:03:16Z</time></trkpt>
<trkpt lat="50.538940" lon="5.249326"><time>2026-05-02T20:13:16Z</time></trkpt>
</trkseg></trk>
<trk>
<name>lwzat49</name>
<cmt>v</cmt>
<desc>Antheit Sentier n°49 Ruelle Saint Martin / Rue Ernest Malvoz / Rue des Chasseurs Ardennais / Thier Boutique / Chaussée de Waremme / Thier de Corphalie</desc>
<link href="https://chemins.be/antheit/sentier/49"/><trkseg>
<trkpt lat="50.538940" lon="5.249326"><time>2026-05-02T20:13:16Z</time></trkpt>
<trkpt lat="50.538318" lon="5.249427"><time>2026-05-02T20:23:16Z</time></trkpt>
<trkpt lat="50.537421" lon="5.249710"><time>2026-05-02T20:33:16Z</time></trkpt>
</trkseg></trk>
<trk>
<name>lwzat49</name>
<cmt>r</cmt>
<desc>Antheit Sentier n°49 Ruelle Saint Martin / Rue Ernest Malvoz / Rue des Chasseurs Ardennais / Thier Boutique / Chaussée de Waremme / Thier de Corphalie</desc>
<link href="https://chemins.be/antheit/sentier/49"/><trkseg>
<trkpt lat="50.537421" lon="5.249710"><time>2026-05-02T20:33:16Z</time></trkpt>
<trkpt lat="50.537755" lon="5.250568"><time>2026-05-02T20:43:16Z</time></trkpt>
<trkpt lat="50.537162" lon="5.250586"><time>2026-05-02T20:53:16Z</time></trkpt>
<trkpt lat="50.537127" lon="5.250761"><time>2026-05-02T21:03:16Z</time></trkpt>
</trkseg></trk>
<trk>
<name>lwzat49</name>
<cmt>q</cmt>
<desc>Antheit Sentier n°49 Ruelle Saint Martin / Rue Ernest Malvoz / Rue des Chasseurs Ardennais / Thier Boutique / Chaussée de Waremme / Thier de Corphalie</desc>
<link href="https://chemins.be/antheit/sentier/49"/><trkseg>
<trkpt lat="50.537127" lon="5.250761"><time>2026-05-02T21:03:16Z</time></trkpt>
<trkpt lat="50.537007" lon="5.250872"><time>2026-05-02T21:13:16Z</time></trkpt>
<trkpt lat="50.536807" lon="5.250926"><time>2026-05-02T21:23:16Z</time></trkpt>
<trkpt lat="50.536350" lon="5.252074"><time>2026-05-02T21:33:16Z</time></trkpt>
<trkpt lat="50.536316" lon="5.252231"><time>2026-05-02T21:43:16Z</time></trkpt>
<trkpt lat="50.536059" lon="5.252206"><time>2026-05-02T21:53:16Z</time></trkpt>
</trkseg>
</trk>
<trk>
<name>lwzat5</name>
<cmt>v</cmt>
<desc>Antheit Chemin n°5 </desc>
<link href="https://chemins.be/antheit/chemin/5"/><trkseg>
<trkpt lat="50.557020" lon="5.244497"><time>2026-05-02T17:43:16Z</time></trkpt>
<trkpt lat="50.558395" lon="5.244664"><time>2026-05-02T17:53:16Z</time></trkpt>
</trkseg>
</trk>
<trk>
<name>lwzat50</name>
<cmt>q</cmt>
<desc>Antheit Sentier n°50 </desc>
<link href="https://chemins.be/antheit/sentier/50"/><trkseg>
<trkpt lat="50.548508" lon="5.229359"><time>2026-05-02T17:43:16Z</time></trkpt>
<trkpt lat="50.548712" lon="5.227918"><time>2026-05-02T17:53:16Z</time></trkpt>
<trkpt lat="50.548730" lon="5.225028"><time>2026-05-02T18:03:16Z</time></trkpt>
<trkpt lat="50.548812" lon="5.222657"><time>2026-05-02T18:13:16Z</time></trkpt>
</trkseg></trk>
<trk>
<name>lwzat50</name>
<cmt>d</cmt>
<desc>Antheit Sentier n°50 </desc>
<link href="https://chemins.be/antheit/sentier/50"/><trkseg>
<trkpt lat="50.548812" lon="5.222657"><time>2026-05-02T18:13:16Z</time></trkpt>
<trkpt lat="50.549085" lon="5.220307"><time>2026-05-02T18:23:16Z</time></trkpt>
</trkseg>
</trk>
<trk>
<name>lwzat51</name>
<cmt>q</cmt>
<desc>Antheit Sentier n°51 </desc>
<link href="https://chemins.be/antheit/sentier/51"/><trkseg>
<trkpt lat="50.546275" lon="5.225635"><time>2026-05-02T17:43:16Z</time></trkpt>
<trkpt lat="50.547222" lon="5.224123"><time>2026-05-02T17:53:16Z</time></trkpt>
<trkpt lat="50.548062" lon="5.222660"><time>2026-05-02T18:03:16Z</time></trkpt>
</trkseg>
</trk>
<trk>
<name>lwzat52</name>
<cmt>v</cmt>
<desc>Antheit Sentier n°52 </desc>
<link href="https://chemins.be/antheit/sentier/52"/><trkseg>
<trkpt lat="50.543509" lon="5.218836"><time>2026-05-02T17:43:16Z</time></trkpt>
<trkpt lat="50.543702" lon="5.219446"><time>2026-05-02T17:53:16Z</time></trkpt>
<trkpt lat="50.544363" lon="5.220051"><time>2026-05-02T18:03:16Z</time></trkpt>
<trkpt lat="50.544969" lon="5.220824"><time>2026-05-02T18:13:16Z</time></trkpt>
<trkpt lat="50.545800" lon="5.221429"><time>2026-05-02T18:23:16Z</time></trkpt>
</trkseg>
</trk>
<trk>
<name>lwzat53</name>
<cmt>q</cmt>
<desc>Antheit Sentier n°53 </desc>
<link href="https://chemins.be/antheit/sentier/53"/><trkseg>
<trkpt lat="50.550035" lon="5.225733"><time>2026-05-02T17:43:16Z</time></trkpt>
<trkpt lat="50.549469" lon="5.225675"><time>2026-05-02T17:53:16Z</time></trkpt>
<trkpt lat="50.549030" lon="5.225178"><time>2026-05-02T18:03:16Z</time></trkpt>
</trkseg>
</trk>
<trk>
<name>lwzat54</name>
<cmt>q</cmt>
<desc>Antheit Sentier n°54 </desc>
<link href="https://chemins.be/antheit/sentier/54"/><trkseg>
<trkpt lat="50.552122" lon="5.232214"><time>2026-05-02T17:43:16Z</time></trkpt>
<trkpt lat="50.550033" lon="5.227872"><time>2026-05-02T17:53:16Z</time></trkpt>
<trkpt lat="50.548574" lon="5.229369"><time>2026-05-02T18:03:16Z</time></trkpt>
</trkseg>
</trk>
<trk>
<name>lwzat55</name>
<cmt>v</cmt>
<desc>Antheit Sentier n°55 </desc>
<link href="https://chemins.be/antheit/sentier/55"/><trkseg>
<trkpt lat="50.545469" lon="5.226180"><time>2026-05-02T17:43:16Z</time></trkpt>
<trkpt lat="50.544859" lon="5.227143"><time>2026-05-02T17:53:16Z</time></trkpt>
</trkseg></trk>
<trk>
<name>lwzat55</name>
<cmt>q</cmt>
<desc>Antheit Sentier n°55 </desc>
<link href="https://chemins.be/antheit/sentier/55"/><trkseg>
<trkpt lat="50.544859" lon="5.227143"><time>2026-05-02T17:53:16Z</time></trkpt>
<trkpt lat="50.545865" lon="5.228600"><time>2026-05-02T18:03:16Z</time></trkpt>
<trkpt lat="50.546054" lon="5.229789"><time>2026-05-02T18:13:16Z</time></trkpt>
<trkpt lat="50.547088" lon="5.233350"><time>2026-05-02T18:23:16Z</time></trkpt>
<trkpt lat="50.546736" lon="5.235897"><time>2026-05-02T18:33:16Z</time></trkpt>
</trkseg>
</trk>
<trk>
<name>lwzat56</name>
<cmt>q</cmt>
<desc>Antheit Sentier n°56 </desc>
<link href="https://chemins.be/antheit/sentier/56"/><trkseg>
<trkpt lat="50.551163" lon="5.223292"><time>2026-05-02T17:43:16Z</time></trkpt>
<trkpt lat="50.552984" lon="5.225103"><time>2026-05-02T17:53:16Z</time></trkpt>
<trkpt lat="50.553383" lon="5.225901"><time>2026-05-02T18:03:16Z</time></trkpt>
<trkpt lat="50.554620" lon="5.227560"><time>2026-05-02T18:13:16Z</time></trkpt>
<trkpt lat="50.555939" lon="5.229151"><time>2026-05-02T18:23:16Z</time></trkpt>
<trkpt lat="50.556773" lon="5.229420"><time>2026-05-02T18:33:16Z</time></trkpt>
<trkpt lat="50.557041" lon="5.229735"><time>2026-05-02T18:43:16Z</time></trkpt>
</trkseg>
</trk>
<trk>
<name>lwzat57</name>
<cmt>q</cmt>
<desc>Antheit Sentier n°57 </desc>
<link href="https://chemins.be/antheit/sentier/57"/><trkseg>
<trkpt lat="50.556408" lon="5.231347"><time>2026-05-02T17:43:16Z</time></trkpt>
<trkpt lat="50.557122" lon="5.229638"><time>2026-05-02T17:53:16Z</time></trkpt>
</trkseg>
</trk>
<trk>
<name>lwzat58</name>
<cmt>q</cmt>
<desc>Antheit Sentier n°58 </desc>
<link href="https://chemins.be/antheit/sentier/58"/><trkseg>
<trkpt lat="50.553798" lon="5.229323"><time>2026-05-02T17:43:16Z</time></trkpt>
<trkpt lat="50.553927" lon="5.228931"><time>2026-05-02T17:53:16Z</time></trkpt>
<trkpt lat="50.553940" lon="5.228310"><time>2026-05-02T18:03:16Z</time></trkpt>
<trkpt lat="50.554729" lon="5.227407"><time>2026-05-02T18:13:16Z</time></trkpt>
</trkseg>
</trk>
<trk>
<name>lwzat59</name>
<cmt>v</cmt>
<desc>Antheit Sentier n°59 </desc>
<link href="https://chemins.be/antheit/sentier/59"/><trkseg>
<trkpt lat="50.551075" lon="5.226663"><time>2026-05-02T17:43:16Z</time></trkpt>
<trkpt lat="50.550865" lon="5.225940"><time>2026-05-02T17:53:16Z</time></trkpt>
<trkpt lat="50.551133" lon="5.224957"><time>2026-05-02T18:03:16Z</time></trkpt>
<trkpt lat="50.550797" lon="5.224189"><time>2026-05-02T18:13:16Z</time></trkpt>
</trkseg></trk>
<trk>
<name>lwzat59</name>
<cmt>q</cmt>
<desc>Antheit Sentier n°59 </desc>
<link href="https://chemins.be/antheit/sentier/59"/><trkseg>
<trkpt lat="50.550797" lon="5.224189"><time>2026-05-02T18:13:16Z</time></trkpt>
<trkpt lat="50.551109" lon="5.223319"><time>2026-05-02T18:23:16Z</time></trkpt>
</trkseg>
</trk>
<trk>
<name>lwzat6</name>
<cmt>v</cmt>
<desc>Antheit Chemin n°6 Rue Pireux</desc>
<link href="https://chemins.be/antheit/chemin/6"/><trkseg>
<trkpt lat="50.547516" lon="5.238621"><time>2026-05-02T17:43:16Z</time></trkpt>
<trkpt lat="50.548050" lon="5.239392"><time>2026-05-02T17:53:16Z</time></trkpt>
<trkpt lat="50.548433" lon="5.239879"><time>2026-05-02T18:03:16Z</time></trkpt>
<trkpt lat="50.548915" lon="5.240368"><time>2026-05-02T18:13:16Z</time></trkpt>
</trkseg>
</trk>
<trk>
<name>lwzat60</name>
<cmt>v</cmt>
<desc>Antheit Sentier n°60 </desc>
<link href="https://chemins.be/antheit/sentier/60"/><trkseg>
<trkpt lat="50.551839" lon="5.237642"><time>2026-05-02T17:43:16Z</time></trkpt>
<trkpt lat="50.552642" lon="5.238475"><time>2026-05-02T17:53:16Z</time></trkpt>
<trkpt lat="50.553371" lon="5.239646"><time>2026-05-02T18:03:16Z</time></trkpt>
</trkseg>
</trk>
<trk>
<name>lwzat61</name>
<cmt>v</cmt>
<desc>Antheit Sentier n°61 </desc>
<link href="https://chemins.be/antheit/sentier/61"/><trkseg>
<trkpt lat="50.557165" lon="5.232334"><time>2026-05-02T17:43:16Z</time></trkpt>
<trkpt lat="50.557026" lon="5.232925"><time>2026-05-02T17:53:16Z</time></trkpt>
<trkpt lat="50.556778" lon="5.233626"><time>2026-05-02T18:03:16Z</time></trkpt>
<trkpt lat="50.555782" lon="5.234567"><time>2026-05-02T18:13:16Z</time></trkpt>
<trkpt lat="50.555700" lon="5.234777"><time>2026-05-02T18:23:16Z</time></trkpt>
<trkpt lat="50.554285" lon="5.235203"><time>2026-05-02T18:33:16Z</time></trkpt>
</trkseg>
</trk>
<trk>
<name>lwzat62</name>
<cmt>v</cmt>
<desc>Antheit Sentier n°62 </desc>
<link href="https://chemins.be/antheit/sentier/62"/><trkseg>
<trkpt lat="50.551091" lon="5.233098"><time>2026-05-02T17:43:16Z</time></trkpt>
<trkpt lat="50.551412" lon="5.234600"><time>2026-05-02T17:53:16Z</time></trkpt>
<trkpt lat="50.552609" lon="5.234410"><time>2026-05-02T18:03:16Z</time></trkpt>
<trkpt lat="50.554330" lon="5.235218"><time>2026-05-02T18:13:16Z</time></trkpt>
<trkpt lat="50.554885" lon="5.235496"><time>2026-05-02T18:23:16Z</time></trkpt>
<trkpt lat="50.555396" lon="5.235717"><time>2026-05-02T18:33:16Z</time></trkpt>
<trkpt lat="50.556546" lon="5.237065"><time>2026-05-02T18:43:16Z</time></trkpt>
<trkpt lat="50.558244" lon="5.238338"><time>2026-05-02T18:53:16Z</time></trkpt>
</trkseg>
</trk>
<trk>
<name>lwzat63</name>
<cmt>q</cmt>
<desc>Antheit Sentier n°63 </desc>
<link href="https://chemins.be/antheit/sentier/63"/><trkseg>
<trkpt lat="50.556510" lon="5.237050"><time>2026-05-02T17:43:16Z</time></trkpt>
<trkpt lat="50.557165" lon="5.238389"><time>2026-05-02T17:53:16Z</time></trkpt>
<trkpt lat="50.556625" lon="5.239677"><time>2026-05-02T18:03:16Z</time></trkpt>
<trkpt lat="50.556756" lon="5.240174"><time>2026-05-02T18:13:16Z</time></trkpt>
<trkpt lat="50.557678" lon="5.240713"><time>2026-05-02T18:23:16Z</time></trkpt>
<trkpt lat="50.558587" lon="5.243016"><time>2026-05-02T18:33:16Z</time></trkpt>
</trkseg>
</trk>
<trk>
<name>lwzat64</name>
<cmt>v</cmt>
<desc>Antheit Sentier n°64 Passage Géraume</desc>
<link href="https://chemins.be/antheit/sentier/64"/><trkseg>
<trkpt lat="50.554629" lon="5.242054"><time>2026-05-02T17:43:16Z</time></trkpt>
<trkpt lat="50.555473" lon="5.241053"><time>2026-05-02T17:53:16Z</time></trkpt>
<trkpt lat="50.555696" lon="5.241312"><time>2026-05-02T18:03:16Z</time></trkpt>
<trkpt lat="50.556467" lon="5.240366"><time>2026-05-02T18:13:16Z</time></trkpt>
<trkpt lat="50.557311" lon="5.239281"><time>2026-05-02T18:23:16Z</time></trkpt>
<trkpt lat="50.557674" lon="5.238808"><time>2026-05-02T18:33:16Z</time></trkpt>
<trkpt lat="50.558271" lon="5.238353"><time>2026-05-02T18:43:16Z</time></trkpt>
</trkseg>
</trk>
<trk>
<name>lwzat65</name>
<cmt>q</cmt>
<desc>Antheit Sentier n°65 </desc>
<link href="https://chemins.be/antheit/sentier/65"/><trkseg>
<trkpt lat="50.550107" lon="5.238499"><time>2026-05-02T17:43:16Z</time></trkpt>
<trkpt lat="50.550135" lon="5.239516"><time>2026-05-02T17:53:16Z</time></trkpt>
<trkpt lat="50.549985" lon="5.241545"><time>2026-05-02T18:03:16Z</time></trkpt>
</trkseg>
</trk>
<trk>
<name>lwzat66</name>
<cmt>r</cmt>
<desc>Antheit Sentier n°66 Rue Ferdinand Fontaine</desc>
<link href="https://chemins.be/antheit/sentier/66"/><trkseg>
<trkpt lat="50.552542" lon="5.241098"><time>2026-05-02T17:43:16Z</time></trkpt>
<trkpt lat="50.552793" lon="5.241518"><time>2026-05-02T17:53:16Z</time></trkpt>
<trkpt lat="50.552919" lon="5.241497"><time>2026-05-02T18:03:16Z</time></trkpt>
</trkseg></trk>
<trk>
<name>lwzat66</name>
<cmt>v</cmt>
<desc>Antheit Sentier n°66 Rue Ferdinand Fontaine</desc>
<link href="https://chemins.be/antheit/sentier/66"/><trkseg>
<trkpt lat="50.552919" lon="5.241497"><time>2026-05-02T18:03:16Z</time></trkpt>
<trkpt lat="50.553808" lon="5.242490"><time>2026-05-02T18:13:16Z</time></trkpt>
</trkseg>
</trk>
<trk>
<name>lwzat67</name>
<cmt>v</cmt>
<desc>Antheit Sentier n°67 Rue Léopold Malaise / Rue Papince</desc>
<link href="https://chemins.be/antheit/sentier/67"/><trkseg>
<trkpt lat="50.554458" lon="5.245748"><time>2026-05-02T17:43:16Z</time></trkpt>
<trkpt lat="50.554254" lon="5.245470"><time>2026-05-02T17:53:16Z</time></trkpt>
<trkpt lat="50.553995" lon="5.245076"><time>2026-05-02T18:03:16Z</time></trkpt>
<trkpt lat="50.553485" lon="5.244643"><time>2026-05-02T18:13:16Z</time></trkpt>
<trkpt lat="50.553336" lon="5.244674"><time>2026-05-02T18:23:16Z</time></trkpt>
</trkseg></trk>
<trk>
<name>lwzat67</name>
<cmt>q</cmt>
<desc>Antheit Sentier n°67 Rue Léopold Malaise / Rue Papince</desc>
<link href="https://chemins.be/antheit/sentier/67"/><trkseg>
<trkpt lat="50.553336" lon="5.244674"><time>2026-05-02T18:23:16Z</time></trkpt>
<trkpt lat="50.552765" lon="5.243642"><time>2026-05-02T18:33:16Z</time></trkpt>
</trkseg></trk>
<trk>
<name>lwzat67</name>
<cmt>v</cmt>
<desc>Antheit Sentier n°67 Rue Léopold Malaise / Rue Papince</desc>
<link href="https://chemins.be/antheit/sentier/67"/><trkseg>
<trkpt lat="50.552765" lon="5.243642"><time>2026-05-02T18:33:16Z</time></trkpt>
<trkpt lat="50.552330" lon="5.242985"><time>2026-05-02T18:43:16Z</time></trkpt>
</trkseg></trk>
<trk>
<name>lwzat67</name>
<cmt>r</cmt>
<desc>Antheit Sentier n°67 Rue Léopold Malaise / Rue Papince</desc>
<link href="https://chemins.be/antheit/sentier/67"/><trkseg>
<trkpt lat="50.552330" lon="5.242985"><time>2026-05-02T18:43:16Z</time></trkpt>
<trkpt lat="50.551859" lon="5.242214"><time>2026-05-02T18:53:16Z</time></trkpt>
<trkpt lat="50.551002" lon="5.241408"><time>2026-05-02T19:03:16Z</time></trkpt>
</trkseg>
</trk>
<trk>
<name>lwzat68</name>
<cmt>v</cmt>
<desc>Antheit Sentier n°68 </desc>
<link href="https://chemins.be/antheit/sentier/68"/><trkseg>
<trkpt lat="50.552043" lon="5.245238"><time>2026-05-02T17:43:16Z</time></trkpt>
<trkpt lat="50.552295" lon="5.245242"><time>2026-05-02T17:53:16Z</time></trkpt>
<trkpt lat="50.552538" lon="5.245233"><time>2026-05-02T18:03:16Z</time></trkpt>
<trkpt lat="50.552739" lon="5.245209"><time>2026-05-02T18:13:16Z</time></trkpt>
<trkpt lat="50.552819" lon="5.245183"><time>2026-05-02T18:23:16Z</time></trkpt>
<trkpt lat="50.553022" lon="5.244739"><time>2026-05-02T18:33:16Z</time></trkpt>
<trkpt lat="50.553335" lon="5.244677"><time>2026-05-02T18:43:16Z</time></trkpt>
</trkseg>
</trk>
<trk>
<name>lwzat69</name>
<cmt>r</cmt>
<desc>Antheit Sentier n°69 Rue Louis Fontaine</desc>
<link href="https://chemins.be/antheit/sentier/69"/><trkseg>
<trkpt lat="50.553906" lon="5.242523"><time>2026-05-02T17:43:16Z</time></trkpt>
<trkpt lat="50.552965" lon="5.243331"><time>2026-05-02T17:53:16Z</time></trkpt>
<trkpt lat="50.552784" lon="5.243603"><time>2026-05-02T18:03:16Z</time></trkpt>
</trkseg>
</trk>
<trk>
<name>lwzat7</name>
<cmt>s</cmt>
<desc>Antheit Chemin n°7 </desc>
<link href="https://chemins.be/antheit/chemin/7"/><trkseg>
<trkpt lat="50.546372" lon="5.235397"><time>2026-05-02T17:43:16Z</time></trkpt>
<trkpt lat="50.546244" lon="5.235620"><time>2026-05-02T17:53:16Z</time></trkpt>
<trkpt lat="50.546148" lon="5.236507"><time>2026-05-02T18:03:16Z</time></trkpt>
</trkseg>
</trk>
<trk>
<name>lwzat70</name>
<cmt>v</cmt>
<desc>Antheit Sentier n°70 </desc>
<link href="https://chemins.be/antheit/sentier/70"/><trkseg>
<trkpt lat="50.551252" lon="5.246394"><time>2026-05-02T17:43:16Z</time></trkpt>
<trkpt lat="50.551514" lon="5.246244"><time>2026-05-02T17:53:16Z</time></trkpt>
<trkpt lat="50.551889" lon="5.246604"><time>2026-05-02T18:03:16Z</time></trkpt>
</trkseg>
</trk>
<trk>
<name>lwzat71</name>
<cmt>q</cmt>
<desc>Antheit Sentier n°71 </desc>
<link href="https://chemins.be/antheit/sentier/71"/><trkseg>
<trkpt lat="50.554383" lon="5.247356"><time>2026-05-02T17:43:16Z</time></trkpt>
<trkpt lat="50.555024" lon="5.249301"><time>2026-05-02T17:53:16Z</time></trkpt>
<trkpt lat="50.557456" lon="5.253425"><time>2026-05-02T18:03:16Z</time></trkpt>
</trkseg>
</trk>
<trk>
<name>lwzat72</name>
<cmt>q</cmt>
<desc>Antheit Sentier n°72 </desc>
<link href="https://chemins.be/antheit/sentier/72"/><trkseg>
<trkpt lat="50.551210" lon="5.263723"><time>2026-05-02T17:43:16Z</time></trkpt>
<trkpt lat="50.551198" lon="5.264160"><time>2026-05-02T17:53:16Z</time></trkpt>
<trkpt lat="50.551825" lon="5.265584"><time>2026-05-02T18:03:16Z</time></trkpt>
</trkseg></trk>
<trk>
<name>lwzat72</name>
<cmt>v</cmt>
<desc>Antheit Sentier n°72 </desc>
<link href="https://chemins.be/antheit/sentier/72"/><trkseg>
<trkpt lat="50.551825" lon="5.265584"><time>2026-05-02T18:03:16Z</time></trkpt>
<trkpt lat="50.552381" lon="5.265833"><time>2026-05-02T18:13:16Z</time></trkpt>
<trkpt lat="50.552811" lon="5.265888"><time>2026-05-02T18:23:16Z</time></trkpt>
<trkpt lat="50.554163" lon="5.265613"><time>2026-05-02T18:33:16Z</time></trkpt>
<trkpt lat="50.554480" lon="5.265238"><time>2026-05-02T18:43:16Z</time></trkpt>
</trkseg>
</trk>
<trk>
<name>lwzat73</name>
<cmt>v</cmt>
<desc>Antheit Sentier n°73 Chaussée de Tirlemont</desc>
<link href="https://chemins.be/antheit/sentier/73"/><trkseg>
<trkpt lat="50.538161" lon="5.222253"><time>2026-05-02T17:43:16Z</time></trkpt>
<trkpt lat="50.538619" lon="5.222416"><time>2026-05-02T17:53:16Z</time></trkpt>
<trkpt lat="50.539172" lon="5.221735"><time>2026-05-02T18:03:16Z</time></trkpt>
<trkpt lat="50.539889" lon="5.220817"><time>2026-05-02T18:13:16Z</time></trkpt>
</trkseg></trk>
<trk>
<name>lwzat73</name>
<cmt>r</cmt>
<desc>Antheit Sentier n°73 Chaussée de Tirlemont</desc>
<link href="https://chemins.be/antheit/sentier/73"/><trkseg>
<trkpt lat="50.539889" lon="5.220817"><time>2026-05-02T18:13:16Z</time></trkpt>
<trkpt lat="50.540724" lon="5.220945"><time>2026-05-02T18:23:16Z</time></trkpt>
</trkseg></trk>
<trk>
<name>lwzat73</name>
<cmt>v</cmt>
<desc>Antheit Sentier n°73 Chaussée de Tirlemont</desc>
<link href="https://chemins.be/antheit/sentier/73"/><trkseg>
<trkpt lat="50.540724" lon="5.220945"><time>2026-05-02T18:23:16Z</time></trkpt>
<trkpt lat="50.540849" lon="5.219903"><time>2026-05-02T18:33:16Z</time></trkpt>
<trkpt lat="50.541196" lon="5.219105"><time>2026-05-02T18:43:16Z</time></trkpt>
<trkpt lat="50.541665" lon="5.218860"><time>2026-05-02T18:53:16Z</time></trkpt>
<trkpt lat="50.541855" lon="5.218778"><time>2026-05-02T19:03:16Z</time></trkpt>
<trkpt lat="50.542221" lon="5.217938"><time>2026-05-02T19:13:16Z</time></trkpt>
</trkseg>
</trk>
<trk>
<name>lwzat75</name>
<cmt>r</cmt>
<desc>Antheit Sentier n°75 Rue de Leumont</desc>
<link href="https://chemins.be/antheit/sentier/75"/><trkseg>
<trkpt lat="50.539231" lon="5.240468"><time>2026-05-02T17:43:16Z</time></trkpt>
<trkpt lat="50.538185" lon="5.235633"><time>2026-05-02T17:53:16Z</time></trkpt>
<trkpt lat="50.537349" lon="5.233330"><time>2026-05-02T18:03:16Z</time></trkpt>
<trkpt lat="50.536822" lon="5.230068"><time>2026-05-02T18:13:16Z</time></trkpt>
</trkseg>
</trk>
<trk>
<name>lwzat76</name>
<cmt>q</cmt>
<desc>Antheit Sentier n°76 </desc>
<link href="https://chemins.be/antheit/sentier/76"/><trkseg>
<trkpt lat="50.545766" lon="5.232140"><time>2026-05-02T17:43:16Z</time></trkpt>
<trkpt lat="50.547017" lon="5.233250"><time>2026-05-02T17:53:16Z</time></trkpt>
</trkseg>
</trk>
<trk>
<name>lwzat77</name>
<cmt>v</cmt>
<desc>Antheit Sentier n°77 </desc>
<link href="https://chemins.be/antheit/sentier/77"/><trkseg>
<trkpt lat="50.545187" lon="5.247086"><time>2026-05-02T17:43:16Z</time></trkpt>
<trkpt lat="50.545555" lon="5.247135"><time>2026-05-02T17:53:16Z</time></trkpt>
<trkpt lat="50.546274" lon="5.247233"><time>2026-05-02T18:03:16Z</time></trkpt>
<trkpt lat="50.547175" lon="5.248195"><time>2026-05-02T18:13:16Z</time></trkpt>
</trkseg>
</trk>
<trk>
<name>lwzat78</name>
<cmt>v</cmt>
<desc>Antheit Sentier n°78 </desc>
<link href="https://chemins.be/antheit/sentier/78"/><trkseg>
<trkpt lat="50.545804" lon="5.254646"><time>2026-05-02T17:43:16Z</time></trkpt>
<trkpt lat="50.546267" lon="5.254105"><time>2026-05-02T17:53:16Z</time></trkpt>
</trkseg>
</trk>
<trk>
<name>lwzat79</name>
<cmt>r</cmt>
<desc>Antheit Sentier n°79 Rue Caine</desc>
<link href="https://chemins.be/antheit/sentier/79"/><trkseg>
<trkpt lat="50.542628" lon="5.254954"><time>2026-05-02T17:43:16Z</time></trkpt>
<trkpt lat="50.543473" lon="5.253813"><time>2026-05-02T17:53:16Z</time></trkpt>
<trkpt lat="50.544996" lon="5.252162"><time>2026-05-02T18:03:16Z</time></trkpt>
</trkseg></trk>
<trk>
<name>lwzat79</name>
<cmt>v</cmt>
<desc>Antheit Sentier n°79 Rue Caine</desc>
<link href="https://chemins.be/antheit/sentier/79"/><trkseg>
<trkpt lat="50.544996" lon="5.252162"><time>2026-05-02T18:03:16Z</time></trkpt>
<trkpt lat="50.545358" lon="5.251774"><time>2026-05-02T18:13:16Z</time></trkpt>
</trkseg>
</trk>
<trk>
<name>lwzat8</name>
<cmt>r</cmt>
<desc>Antheit Chemin n°8 </desc>
<link href="https://chemins.be/antheit/chemin/8"/><trkseg>
<trkpt lat="50.548098" lon="5.260432"><time>2026-05-02T17:43:16Z</time></trkpt>
<trkpt lat="50.548700" lon="5.260968"><time>2026-05-02T17:53:16Z</time></trkpt>
</trkseg></trk>
<trk>
<name>lwzat8</name>
<cmt>v</cmt>
<desc>Antheit Chemin n°8 </desc>
<link href="https://chemins.be/antheit/chemin/8"/><trkseg>
<trkpt lat="50.548700" lon="5.260968"><time>2026-05-02T17:53:16Z</time></trkpt>
<trkpt lat="50.549278" lon="5.261259"><time>2026-05-02T18:03:16Z</time></trkpt>
<trkpt lat="50.551794" lon="5.260333"><time>2026-05-02T18:13:16Z</time></trkpt>
<trkpt lat="50.553697" lon="5.259451"><time>2026-05-02T18:23:16Z</time></trkpt>
<trkpt lat="50.557024" lon="5.258286"><time>2026-05-02T18:33:16Z</time></trkpt>
</trkseg>
</trk>
<trk>
<name>lwzat80</name>
<cmt>q</cmt>
<desc>Antheit Sentier n°80 </desc>
<link href="https://chemins.be/antheit/sentier/80"/><trkseg>
<trkpt lat="50.539283" lon="5.240673"><time>2026-05-02T17:43:16Z</time></trkpt>
<trkpt lat="50.537079" lon="5.239314"><time>2026-05-02T17:53:16Z</time></trkpt>
</trkseg>
</trk>
<trk>
<name>lwzat9</name>
<cmt>s</cmt>
<desc>Antheit Chemin n°9 </desc>
<link href="https://chemins.be/antheit/chemin/9"/><trkseg>
<trkpt lat="50.546208" lon="5.235662"><time>2026-05-02T17:43:16Z</time></trkpt>
<trkpt lat="50.545267" lon="5.236477"><time>2026-05-02T17:53:16Z</time></trkpt>
</trkseg>
</trk>
<trk>
<name>lwzati1</name>
<cmt>s</cmt>
<desc>Antheit Chemin n°i1 </desc>
<link href="https://chemins.be/antheit/chemin/i1"/><trkseg>
<trkpt lat="50.550499" lon="5.212019"><time>2026-05-02T17:43:16Z</time></trkpt>
<trkpt lat="50.550195" lon="5.213030"><time>2026-05-02T17:53:16Z</time></trkpt>
<trkpt lat="50.549768" lon="5.213615"><time>2026-05-02T18:03:16Z</time></trkpt>
<trkpt lat="50.549038" lon="5.213926"><time>2026-05-02T18:13:16Z</time></trkpt>
<trkpt lat="50.549015" lon="5.214660"><time>2026-05-02T18:23:16Z</time></trkpt>
<trkpt lat="50.549087" lon="5.215804"><time>2026-05-02T18:33:16Z</time></trkpt>
<trkpt lat="50.548797" lon="5.216081"><time>2026-05-02T18:43:16Z</time></trkpt>
<trkpt lat="50.549013" lon="5.217312"><time>2026-05-02T18:53:16Z</time></trkpt>
</trkseg>
</trk>
<trk>
<name>lwzati2</name>
<cmt>v</cmt>
<desc>Antheit Chemin n°i2 </desc>
<link href="https://chemins.be/antheit/chemin/i2"/><trkseg>
<trkpt lat="50.544415" lon="5.227671"><time>2026-05-02T17:43:16Z</time></trkpt>
<trkpt lat="50.544877" lon="5.227200"><time>2026-05-02T17:53:16Z</time></trkpt>
</trkseg>
</trk>
<trk>
<name>lwzati3</name>
<cmt>v</cmt>
<desc>Antheit Sentier n°i3 </desc>
<link href="https://chemins.be/antheit/sentier/i3"/><trkseg>
<trkpt lat="50.542610" lon="5.255010"><time>2026-05-02T17:43:16Z</time></trkpt>
<trkpt lat="50.542125" lon="5.256059"><time>2026-05-02T17:53:16Z</time></trkpt>
</trkseg>
</trk>
<trk>
<name>lwzati4</name>
<cmt>d</cmt>
<desc>Antheit Chemin n°i4 </desc>
<link href="https://chemins.be/antheit/chemin/i4"/><trkseg>
<trkpt lat="50.554383" lon="5.247356"><time>2026-05-02T17:43:16Z</time></trkpt>
<trkpt lat="50.554019" lon="5.247829"><time>2026-05-02T17:53:16Z</time></trkpt>
<trkpt lat="50.553938" lon="5.247884"><time>2026-05-02T18:03:16Z</time></trkpt>
</trkseg>
</trk>
<trk>
<name>lwzati5</name>
<cmt>v</cmt>
<desc>Antheit Chemin n°i5 </desc>
<link href="https://chemins.be/antheit/chemin/i5"/><trkseg>
<trkpt lat="50.550290" lon="5.253517"><time>2026-05-02T17:43:16Z</time></trkpt>
<trkpt lat="50.550463" lon="5.254381"><time>2026-05-02T17:53:16Z</time></trkpt>
<trkpt lat="50.550267" lon="5.255337"><time>2026-05-02T18:03:16Z</time></trkpt>
<trkpt lat="50.550572" lon="5.256144"><time>2026-05-02T18:13:16Z</time></trkpt>
<trkpt lat="50.550928" lon="5.257085"><time>2026-05-02T18:23:16Z</time></trkpt>
<trkpt lat="50.552470" lon="5.259993"><time>2026-05-02T18:33:16Z</time></trkpt>
</trkseg>
</trk>
<trk>
<name>lwzati6</name>
<cmt>q</cmt>
<desc>Antheit Chemin n°i6 </desc>
<link href="https://chemins.be/antheit/chemin/i6"/><trkseg>
<trkpt lat="50.549698" lon="5.217688"><time>2026-05-02T17:43:16Z</time></trkpt>
<trkpt lat="50.550183" lon="5.220684"><time>2026-05-02T17:53:16Z</time></trkpt>
<trkpt lat="50.550647" lon="5.221894"><time>2026-05-02T18:03:16Z</time></trkpt>
<trkpt lat="50.551640" lon="5.222272"><time>2026-05-02T18:13:16Z</time></trkpt>
</trkseg>
</trk>
<trk>
<name>lwzati7</name>
<cmt>v</cmt>
<desc>Antheit Chemin n°i7 </desc>
<link href="https://chemins.be/antheit/chemin/i7"/><trkseg>
<trkpt lat="50.551647" lon="5.260338"><time>2026-05-02T17:43:16Z</time></trkpt>
<trkpt lat="50.551238" lon="5.262644"><time>2026-05-02T17:53:16Z</time></trkpt>
<trkpt lat="50.550911" lon="5.262859"><time>2026-05-02T18:03:16Z</time></trkpt>
<trkpt lat="50.550727" lon="5.263513"><time>2026-05-02T18:13:16Z</time></trkpt>
</trkseg>
</trk>
<trk>
<name>lwzati8</name>
<cmt>q</cmt>
<desc>Antheit Chemin n°i8 </desc>
<link href="https://chemins.be/antheit/chemin/i8"/><trkseg>
<trkpt lat="50.539311" lon="5.240725"><time>2026-05-02T17:43:16Z</time></trkpt>
<trkpt lat="50.538124" lon="5.241315"><time>2026-05-02T17:53:16Z</time></trkpt>
<trkpt lat="50.537531" lon="5.239212"><time>2026-05-02T18:03:16Z</time></trkpt>
<trkpt lat="50.537244" lon="5.238708"><time>2026-05-02T18:13:16Z</time></trkpt>
<trkpt lat="50.536977" lon="5.237687"><time>2026-05-02T18:23:16Z</time></trkpt>
<trkpt lat="50.536727" lon="5.237780"><time>2026-05-02T18:33:16Z</time></trkpt>
</trkseg>
</trk>
</gpx>